sat.trackr.live / text

‹ back to catalog

STARLINK-32746

NORAD 62745 · 2025-014L

PAYLOAD ACTIVE UNKNOWN

§ Identity

Operator
Country
US
Launch date
2025-01-21
Launch site
AFETR
Launch vehicle
Mass (kg)
RCS (m²)

Purposes: comms

External: N2YO · Heavens-Above · Gunter

§ Orbital elements

Epoch: 2026-09-21T19:00:22.205088Z

Period
94.27 min
Inclination
42.9972°
Eccentricity
0.0000573
Mean motion
15.27591148 rev/d
Perigee alt
482.6 km
Apogee alt
483.4 km
Semi-major
6,861.2 km
B*
5.5726e-4
RAAN
126.4778°
Arg perigee
56.8093°
Mean anomaly
303.2814°
Rev number
9,325

§ Raw data

STARLINK-327461 62745U 25014L   26264.79192367  .00015109  00000+0  55726-3 0  99932 62745  42.9972 126.4778 0000573  56.8093 303.2814 15.27591148 93253

JSON: /api/v1/satellites/62745 · /tle

For live sub-satellite position, see the globe view (requires WebGL).

§ Visibility from observer

Set your observer location to see the next 7 days of passes ≥ 10°. The values pass through the URL so the page stays shareable.

No JS? Fill the form by hand. The geolocation button needs JavaScript.